Terug naar catalogus

ARIANE 2 DEB

ActiefGTO
NORAD 40787·DEBRIS·🇫🇷 France

Gelanceerd Jan 27, 1989 vanaf Guiana Space Centre

Loading…

TLE

VerouderdSource: Space-Track

Epoch: Sep 3, 2026, 05:55 UTC

1 40787U 89006CG  26246.24681778 -.00000148  00000-0 -57705-3 0  9994
2 40787   7.8227 220.8705 7117694 156.0574 356.1846  2.25287793105207

Volg ARIANE 2 DEB in realtime met AllMySat

Download on the App Store